Radiation Dose at Monitoring Post of Fukushima Daini Nuclear Power Station
Date,Time,MP-1(microSv/h),MP-2(microSv/h),MP-3(microSv/h),MP-4(microSv/h),MP-5(microSv/h),MP-6(microSv/h),MP-7(microSv/h),Wind Direction,Wind Velocity(m/s),Rain
2019/03/02,00:00,0.214,0.190,0.306,0.289,0.275,0.154,0.094,north,1.1,No
2019/03/02,00:10,0.212,0.189,0.308,0.287,0.274,0.155,0.094,northwest,1.3,No
2019/03/02,00:20,0.212,0.191,0.308,0.287,0.274,0.154,0.093,northwest,2.8,No
2019/03/02,00:30,0.213,0.190,0.306,0.288,0.273,0.155,0.094,east,0.6,No
2019/03/02,00:40,0.214,0.191,0.307,0.289,0.274,0.155,0.094,-,CALM,No
2019/03/02,00:50,0.213,0.190,0.309,0.287,0.275,0.154,0.094,-,CALM,No
2019/03/02,01:00,0.212,0.191,0.308,0.287,0.274,0.155,0.094,northeast,1.0,No
2019/03/02,01:10,0.212,0.190,0.307,0.288,0.273,0.154,0.093,-,CALM,No
2019/03/02,01:20,0.213,0.190,0.307,0.287,0.275,0.155,0.094,-,CALM,No
2019/03/02,01:30,0.212,0.190,0.307,0.288,0.274,0.154,0.094,north,1.9,No
2019/03/02,01:40,0.213,0.191,0.307,0.288,0.274,0.155,0.094,north-northwest,2.8,No
2019/03/02,01:50,0.213,0.190,0.308,0.288,0.273,0.155,0.094,north-northwest,2.0,No
2019/03/02,02:00,0.213,0.191,0.308,0.288,0.275,0.155,0.093,northwest,3.2,No
2019/03/02,02:10,0.212,0.191,0.308,0.287,0.275,0.154,0.094,northwest,2.5,No
2019/03/02,02:20,0.213,0.190,0.307,0.288,0.273,0.154,0.094,north-northwest,2.9,No
2019/03/02,02:30,0.212,0.191,0.308,0.287,0.274,0.155,0.094,north-northwest,4.1,No
2019/03/02,02:40,0.213,0.190,0.307,0.287,0.275,0.154,0.094,northwest,4.1,No
2019/03/02,02:50,0.212,0.191,0.309,0.288,0.273,0.155,0.094,northwest,3.4,No
2019/03/02,03:00,0.213,0.191,0.308,0.288,0.274,0.155,0.094,northwest,2.7,No
2019/03/02,03:10,0.212,0.190,0.309,0.287,0.274,0.156,0.094,north-northwest,2.8,No
2019/03/02,03:20,0.213,0.190,0.308,0.288,0.275,0.155,0.094,west-northwest,3.4,No
2019/03/02,03:30,0.214,0.191,0.308,0.288,0.274,0.156,0.094,west-northwest,4.6,No
2019/03/02,03:40,0.212,0.191,0.308,0.288,0.274,0.155,0.094,northwest,3.5,No
2019/03/02,03:50,0.213,0.190,0.308,0.289,0.275,0.155,0.093,north-northwest,3.0,No
2019/03/02,04:00,0.214,0.190,0.309,0.287,0.275,0.155,0.094,northwest,3.5,No
2019/03/02,04:10,0.212,0.191,0.309,0.289,0.275,0.155,0.094,north,1.4,No
2019/03/02,04:20,0.213,0.191,0.307,0.289,0.274,0.155,0.094,north,0.9,No
2019/03/02,04:30,0.212,0.191,0.308,0.287,0.275,0.155,0.094,northwest,1.9,No
2019/03/02,04:40,0.213,0.190,0.308,0.287,0.274,0.155,0.093,west,1.9,No
2019/03/02,04:50,0.213,0.191,0.308,0.288,0.274,0.155,0.094,west-northwest,1.3,No
2019/03/02,05:00,0.212,0.190,0.310,0.288,0.275,0.155,0.094,west-northwest,1.4,No
2019/03/02,05:10,0.213,0.190,0.310,0.288,0.274,0.156,0.094,west-northwest,0.9,No
2019/03/02,05:20,0.213,0.190,0.311,0.287,0.274,0.156,0.094,west-northwest,1.0,No
2019/03/02,05:30,0.213,0.192,0.308,0.288,0.274,0.155,0.093,west-northwest,1.2,No
2019/03/02,05:40,0.214,0.190,0.308,0.289,0.275,0.155,0.094,-,CALM,No
2019/03/02,05:50,0.212,0.191,0.308,0.289,0.274,0.155,0.094,west-northwest,0.6,No
2019/03/02,06:00,0.213,0.191,0.309,0.287,0.273,0.156,0.094,west-northwest,0.8,No
2019/03/02,06:10,0.212,0.192,0.308,0.288,0.274,0.154,0.093,west,0.8,No
2019/03/02,06:20,0.213,0.191,0.309,0.287,0.274,0.156,0.094,west,0.7,No
2019/03/02,06:30,0.212,0.191,0.307,0.288,0.274,0.156,0.094,west-northwest,1.2,No
2019/03/02,06:40,0.213,0.190,0.308,0.287,0.274,0.155,0.095,west-northwest,1.3,No
2019/03/02,06:50,0.213,0.190,0.308,0.288,0.274,0.155,0.094,northwest,1.9,No
2019/03/02,07:00,0.213,0.191,0.309,0.287,0.274,0.155,0.095,west-northwest,2.3,No
2019/03/02,07:10,0.212,0.191,0.308,0.288,0.274,0.155,0.094,west,2.2,No
2019/03/02,07:20,0.213,0.191,0.308,0.288,0.275,0.156,0.094,west,2.4,No
2019/03/02,07:30,0.213,0.190,0.307,0.288,0.274,0.155,0.094,west,3.1,No
2019/03/02,07:40,0.213,0.190,0.307,0.287,0.276,0.155,0.094,west,4.1,No
2019/03/02,07:50,0.213,0.190,0.308,0.287,0.275,0.156,0.094,west-northwest,4.6,No
2019/03/02,08:00,0.213,0.191,0.307,0.286,0.274,0.156,0.094,west-northwest,3.8,No
2019/03/02,08:10,0.212,0.190,0.309,0.287,0.274,0.155,0.093,west-northwest,3.0,No
2019/03/02,08:20,0.212,0.191,0.306,0.287,0.274,0.155,0.093,west-northwest,2.5,No
2019/03/02,08:30,0.213,0.190,0.307,0.288,0.276,0.153,0.093,west-northwest,2.4,No
2019/03/02,08:40,0.213,0.190,0.308,0.287,0.274,0.154,0.093,-,CALM,No
2019/03/02,08:50,0.212,0.190,0.307,0.287,0.274,0.155,0.094,northwest,1.8,No
2019/03/02,09:00,0.213,0.188,0.306,0.286,0.274,0.155,0.094,west-northwest,3.7,No
2019/03/02,09:10,0.212,0.189,0.308,0.286,0.274,0.155,0.093,west-northwest,7.3,No
2019/03/02,09:20,0.211,0.189,0.309,0.288,0.274,0.155,0.093,west,7.7,No
2019/03/02,09:30,0.213,0.190,0.308,0.286,0.275,0.154,0.093,west-northwest,7.3,No
2019/03/02,09:40,0.213,0.190,0.307,0.288,0.274,0.154,0.094,northwest,5.4,No
2019/03/02,09:50,0.213,0.189,0.308,0.284,0.275,0.153,0.093,west-northwest,9.0,No
2019/03/02,10:00,0.214,0.188,0.307,0.288,0.275,0.154,0.093,west-northwest,8.7,No
2019/03/02,10:10,0.211,0.189,0.307,0.285,0.273,0.154,0.093,west-northwest,9.3,No
2019/03/02,10:20,0.211,0.191,0.306,0.287,0.275,0.154,0.094,west-northwest,8.4,No
2019/03/02,10:30,0.213,0.191,0.307,0.285,0.273,0.154,0.093,west-northwest,5.9,No
2019/03/02,10:40,0.212,0.190,0.308,0.287,0.276,0.156,0.093,west-northwest,5.1,No
2019/03/02,10:50,0.213,0.191,0.308,0.284,0.273,0.153,0.092,west-northwest,4.1,No
2019/03/02,11:00,0.211,0.191,0.307,0.288,0.275,0.154,0.093,west-northwest,4.8,No
2019/03/02,11:10,0.213,0.191,0.307,0.286,0.273,0.154,0.093,west-northwest,6.6,No
2019/03/02,11:20,0.212,0.190,0.307,0.288,0.274,0.154,0.094,northwest,9.3,No
2019/03/02,11:30,0.212,0.190,0.307,0.285,0.273,0.155,0.093,west-northwest,7.5,No
2019/03/02,11:40,0.212,0.191,0.308,0.287,0.276,0.154,0.093,west-northwest,6.6,No
2019/03/02,11:50,0.213,0.191,0.306,0.288,0.276,0.155,0.093,west-northwest,3.3,No
2019/03/02,12:00,0.212,0.190,0.307,0.287,0.275,0.155,0.093,west-northwest,4.7,No
2019/03/02,12:10,0.213,0.190,0.307,0.289,0.273,0.154,0.093,northwest,5.6,No
2019/03/02,12:20,0.211,0.190,0.306,0.285,0.275,0.155,0.093,northwest,7.4,No
2019/03/02,12:30,0.214,0.191,0.308,0.288,0.274,0.155,0.093,west-northwest,7.1,No
2019/03/02,12:40,0.211,0.189,0.305,0.285,0.274,0.155,0.094,west-northwest,4.4,No
2019/03/02,12:50,0.214,0.191,0.309,0.289,0.274,0.155,0.093,northwest,4.3,No
2019/03/02,13:00,0.212,0.191,0.306,0.286,0.275,0.155,0.093,west-northwest,4.1,No
2019/03/02,13:10,0.214,0.192,0.309,0.285,0.273,0.154,0.093,northwest,5.9,No
2019/03/02,13:20,0.212,0.190,0.307,0.288,0.276,0.155,0.093,northwest,3.7,No
2019/03/02,13:30,0.214,0.190,0.309,0.287,0.274,0.156,0.093,northwest,3.5,No
2019/03/02,13:40,0.212,0.191,0.307,0.289,0.276,0.155,0.093,northwest,4.9,No
2019/03/02,13:50,0.212,0.190,0.310,0.287,0.274,0.155,0.093,northwest,6.0,No
2019/03/02,14:00,0.212,0.191,0.308,0.290,0.276,0.155,0.093,west-northwest,3.8,No
2019/03/02,14:10,0.210,0.192,0.309,0.288,0.276,0.155,0.094,west-northwest,3.0,No
2019/03/02,14:20,0.213,0.190,0.310,0.288,0.275,0.155,0.093,northwest,5.3,No
2019/03/02,14:30,0.212,0.192,0.307,0.289,0.277,0.155,0.093,west-northwest,7.0,No
2019/03/02,14:40,0.213,0.190,0.309,0.288,0.274,0.155,0.093,west,6.0,No
2019/03/02,14:50,0.211,0.192,0.308,0.289,0.276,0.154,0.093,northwest,3.5,No
2019/03/02,15:00,0.212,0.191,0.308,0.289,0.275,0.154,0.094,west-northwest,3.8,No
2019/03/02,15:10,0.211,0.191,0.311,0.288,0.277,0.156,0.093,west-northwest,4.0,No
2019/03/02,15:20,0.210,0.191,0.309,0.291,0.276,0.157,0.093,west,4.5,No
2019/03/02,15:30,0.212,0.191,0.308,0.288,0.275,0.155,0.094,west-northwest,4.7,No
2019/03/02,15:40,0.211,0.191,0.309,0.289,0.277,0.155,0.094,northwest,5.0,No
2019/03/02,15:50,0.212,0.191,0.308,0.290,0.276,0.156,0.094,west-northwest,5.0,No
2019/03/02,16:00,0.213,0.192,0.308,0.288,0.277,0.154,0.094,west-northwest,3.7,No
2019/03/02,16:10,0.213,0.191,0.309,0.290,0.274,0.155,0.094,west-northwest,4.1,No
2019/03/02,16:20,0.213,0.191,0.309,0.288,0.276,0.154,0.093,west-northwest,3.4,No
2019/03/02,16:30,0.215,0.192,0.310,0.289,0.276,0.157,0.094,west-northwest,3.9,No
2019/03/02,16:40,0.213,0.193,0.307,0.290,0.276,0.155,0.094,northwest,3.1,No
2019/03/02,16:50,0.215,0.191,0.308,0.291,0.276,0.157,0.093,northwest,3.8,No
2019/03/02,17:00,0.214,0.191,0.309,0.288,0.275,0.155,0.094,northwest,1.8,No
2019/03/02,17:10,0.214,0.190,0.309,0.289,0.275,0.157,0.094,northwest,3.1,No
2019/03/02,17:20,0.214,0.191,0.307,0.289,0.275,0.155,0.093,north-northwest,4.1,No
2019/03/02,17:30,0.213,0.192,0.310,0.289,0.275,0.156,0.094,northwest,5.0,No
2019/03/02,17:40,0.214,0.192,0.309,0.290,0.275,0.156,0.094,northwest,5.0,No
2019/03/02,17:50,0.214,0.193,0.309,0.290,0.275,0.156,0.094,northwest,5.1,No
2019/03/02,18:00,0.214,0.192,0.308,0.289,0.277,0.156,0.094,northwest,5.9,No
2019/03/02,18:10,0.214,0.192,0.309,0.288,0.275,0.156,0.094,northwest,6.3,No
2019/03/02,18:20,0.213,0.192,0.308,0.288,0.275,0.156,0.094,northwest,6.3,No
2019/03/02,18:30,0.213,0.191,0.308,0.289,0.275,0.156,0.094,northwest,5.2,No
2019/03/02,18:40,0.214,0.192,0.311,0.290,0.275,0.156,0.094,northwest,3.7,No
2019/03/02,18:50,0.213,0.192,0.311,0.288,0.275,0.156,0.094,northwest,3.3,No
2019/03/02,19:00,0.214,0.190,0.308,0.290,0.275,0.156,0.094,northwest,3.3,No
2019/03/02,19:10,0.213,0.192,0.309,0.288,0.276,0.156,0.094,northwest,1.5,No
2019/03/02,19:20,0.214,0.191,0.309,0.291,0.274,0.156,0.093,west-northwest,2.0,No
2019/03/02,19:30,0.214,0.192,0.309,0.289,0.275,0.156,0.094,west-northwest,2.2,No
2019/03/02,19:40,0.216,0.192,0.309,0.290,0.276,0.156,0.094,west-northwest,3.9,No
2019/03/02,19:50,0.215,0.192,0.310,0.288,0.275,0.155,0.095,west-northwest,5.1,No
2019/03/02,20:00,0.214,0.192,0.310,0.289,0.274,0.156,0.094,northwest,8.8,No
2019/03/02,20:10,0.213,0.192,0.310,0.290,0.275,0.155,0.094,west-northwest,7.6,No
2019/03/02,20:20,0.214,0.191,0.310,0.289,0.275,0.156,0.093,west-northwest,7.4,No
2019/03/02,20:30,0.214,0.191,0.310,0.290,0.276,0.156,0.094,west-northwest,5.6,No
2019/03/02,20:40,0.214,0.192,0.310,0.291,0.276,0.156,0.094,west-northwest,3.9,No
2019/03/02,20:50,0.214,0.193,0.310,0.289,0.275,0.155,0.094,west-northwest,2.9,No
2019/03/02,21:00,0.214,0.191,0.309,0.289,0.275,0.156,0.094,west-northwest,5.3,No
2019/03/02,21:10,0.214,0.191,0.309,0.289,0.275,0.156,0.094,west-northwest,6.5,No
2019/03/02,21:20,0.214,0.191,0.309,0.288,0.275,0.156,0.094,west-northwest,7.1,No
2019/03/02,21:30,0.216,0.192,0.310,0.290,0.274,0.156,0.094,west-northwest,7.0,No
2019/03/02,21:40,0.215,0.192,0.309,0.289,0.275,0.155,0.094,west-northwest,7.4,No
2019/03/02,21:50,0.215,0.191,0.308,0.289,0.275,0.155,0.093,west-northwest,8.1,No
2019/03/02,22:00,0.212,0.191,0.309,0.290,0.274,0.156,0.093,west-northwest,8.5,No
2019/03/02,22:10,0.213,0.192,0.311,0.289,0.274,0.156,0.094,west-northwest,7.3,No
2019/03/02,22:20,0.215,0.192,0.309,0.289,0.276,0.156,0.094,west-northwest,7.0,No
2019/03/02,22:30,0.214,0.191,0.310,0.289,0.275,0.156,0.094,west-northwest,6.2,No
2019/03/02,22:40,0.214,0.191,0.310,0.288,0.275,0.156,0.094,west-northwest,5.8,No
2019/03/02,22:50,0.214,0.191,0.311,0.289,0.275,0.155,0.094,west-northwest,5.6,No
2019/03/02,23:00,0.214,0.191,0.310,0.290,0.277,0.156,0.093,west-northwest,5.4,No
2019/03/02,23:10,0.214,0.192,0.308,0.290,0.275,0.155,0.094,west-northwest,5.3,No
2019/03/02,23:20,0.214,0.190,0.309,0.289,0.275,0.157,0.094,west-northwest,6.2,No
2019/03/02,23:30,0.214,0.192,0.309,0.288,0.275,0.156,0.094,west-northwest,5.1,No
2019/03/02,23:40,0.213,0.192,0.310,0.290,0.277,0.156,0.094,west-northwest,3.8,No
2019/03/02,23:50,0.214,0.192,0.309,0.290,0.275,0.157,0.094,west-northwest,4.2,No
